This demonstration page uses our WeatherBlox Daily Observations layout. Learn more.

Left ArrowRight Arrow

Hourly Observations for November 17, 2022

Temp ( °F °C ) Dew Point ( °F °C ) Humidity (%) Winds ( mph kmh ) Pressure ( in mb ) Visibility ( mi km ) Precip ( " mm )
12:53 am 00:53 Mostly Cloudy 35 1.7 17 -8.3 47 47 N 6 9 30.44 1031 10 16 0.00 0.00
1:53 am 01:53 Mostly Cloudy 34 1.1 17 -8.3 49 49 NNE 3 6 30.42 1030 10 16 0.00 0.00
2:53 am 02:53 Clear 31 -0.6 16 -8.9 53 53 N 5 7 30.40 1030 10 16 0.00 0.00
3:53 am 03:53 Clear 28 -2.2 15 -9.4 58 58 N 6 9 30.40 1030 10 16 0.00 0.00
4:53 am 04:53 Clear 26 -3.3 15 -9.4 63 63 N 7 11 30.42 1030 10 16 0.00 0.00
5:53 am 05:53 Clear 27 -2.8 16 -8.9 63 63 Calm 30.40 1029 10 16 0.00 0.00
6:53 am 06:53 Clear 24 -4.4 14 -10 65 65 NNE 3 6 30.40 1030 10 16 0.00 0.00
7:53 am 07:53 Sunny 25 -3.9 14 -10 62 62 N 5 7 30.40 1030 10 16 0.00 0.00
8:53 am 08:53 Sunny 36 2.2 19 -7.2 50 50 Calm 30.40 1029 10 16 0.00 0.00
9:53 am 09:53 Sunny 44 6.7 22 -5.6 41 41 VRB 3 6 30.39 1029 10 16 0.00 0.00
10:53 am 10:53 Sunny 47 8.3 23 -5 38 38 SSW 7 11 30.36 1028 10 16 0.00 0.00
11:53 am 11:53 Sunny 50 10 22 -5.6 33 33 S 8 13 30.32 1027 10 16 0.00 0.00
12:53 pm 12:53 Sunny 52 11.1 22 -5.6 30 30 S 10 17 30.29 1026 10 16 0.00 0.00
1:53 pm 13:53 Sunny 54 12.2 21 -6.1 27 27 S 12 19 30.24 1024 10 16 0.00 0.00
2:53 pm 14:53 Sunny 54 12.2 21 -6.1 27 27 SW 8 13 30.21 1023 10 16 0.00 0.00
3:53 pm 15:53 Sunny 55 12.8 22 -5.6 27 27 SSW 7 11 30.18 1022 10 16 0.00 0.00
4:53 pm 16:53 Sunny 55 12.8 22 -5.6 27 27 SE 6 9 30.18 1022 10 16 0.00 0.00
5:53 pm 17:53 Clear 50 10 22 -5.6 33 33 SE 6 9 30.19 1022 10 16 0.00 0.00
6:53 pm 18:53 Clear 46 7.8 22 -5.6 38 38 E 5 7 30.22 1023 10 16 0.00 0.00
7:53 pm 19:53 Clear 44 6.7 22 -5.6 41 41 ESE 7 11 30.22 1023 10 16 0.00 0.00
8:53 pm 20:53 Clear 41 5 22 -5.6 46 46 ESE 8 13 30.20 1023 10 16 0.00 0.00
9:53 pm 21:53 Clear 42 5.6 23 -5 46 46 ESE 8 13 30.19 1022 10 16 0.00 0.00
10:53 pm 22:53 Clear 41 5 23 -5 48 48 ESE 9 15 30.19 1023 10 16 0.00 0.00
11:53 pm 23:53 Clear 38 3.3 22 -5.6 52 52 E 7 11 30.18 1022 10 16 0.00 0.00

Powered by AerisWeather